Weather Roundup
Issued by NWS Springfield, MO

Home | Current Version | Previous Version | Text Only | Print | Product List | Glossary On
Versions: 1 2 3 4 5 6 7 8 9 10 11 12 13 14 15 16 17 18 19 20 21 22 23 24 25 26 27 28 29 30 31 32 33 34 35 36 37 38 39 40 41 42 43 44 45 46 47 48 49 50
000
NZUS99 KSGF 290007
HRRSGF

HOURLY WEATHER
NATIONAL WEATHER SERVICE SPRINGFIELD MO
700 PM CDT TUE JUL 28 2015

......SGF CWA......

CITY           SKY/WX    TMP DP  RH WIND       PRES   REMARKS
SPRINGFIELD    SUNNY     90  72  55 S10       29.95S HX  97
6HR MIN TEMP:  90; 6HR MAX TEMP:  93;

JOPLIN         SUNNY     91  72  53 S13       29.93R HX  98
6HR MIN TEMP:  91; 6HR MAX TEMP:  96;

WEST PLAINS    SUNNY     89  74  60 SW5       29.98F HX  98
6HR MIN TEMP:  89; 6HR MAX TEMP:  93;

ROLLA          SUNNY     88  77  69 S6        29.92F HX 100
6HR MIN TEMP:  88; 6HR MAX TEMP:  93;

OSAGE BEACH    SUNNY     91  73  55 S5        29.92S HX 100
BRANSON        SUNNY     90  75  62 SW5       29.98S HX 100

......SURROUNDING SGF CWA......

CITY           SKY/WX    TMP DP  RH WIND       PRES   REMARKS
CHANUTE        SUNNY     91  72  53 S15G23    29.90F HX  98
PARSONS        SUNNY     90  74  59 S12       29.91S HX  99
COFFEYVILLE    SUNNY     92  73  53 S15       29.89F HX 100
EMPORIA        SUNNY     94  72  48 S17G24    29.86F HX 102
GROVE OK       SUNNY     93  73  52 S10       29.93S HX 102
ROGERS AR      SUNNY     91  73  55 SW13      29.97F HX  99
SILOAM SPRINGS SUNNY     91  72  52 S8        29.95S HX  98
HARRISON AR    SUNNY     88  75  65 S5        29.98S HX  97
NEAR YELLVILLE SUNNY     91  73  55 S3        29.93F HX 100

......KANSAS AND MISSOURI......

CITY           SKY/WX    TMP DP  RH WIND       PRES   REMARKS
KANSAS CTY INT MOSUNNY   90  74  59 S15       29.86F HX  99
DOWNTOWN KC    SUNNY     94  69  44 S17G25    29.84F HX  99
COLUMBIA       SUNNY     90  77  65 SW10      29.91F HX 103
SEDALIA        SUNNY     92  73  53 S10       29.90F HX 100
ST JOSEPH      SUNNY     91  77  63 S8        29.84S HX 104
ST LOUIS       CLOUDY    93  75  55 E8        29.90F HX 104
SPIRIT OF STL  PTSUNNY   94  79  61 W3        29.88F HX 111
KIRKSVILLE     SUNNY     90  76  63 S6        29.93R HX 101
WICHITA        MOSUNNY   96  70  42 S23G29    29.85S HX 102
TOPEKA         SUNNY     94  72  48 S13       29.84S HX 102
OLATHE         SUNNY     91  70  49 S10       29.87F HX  96

......TENNESSEE......

CITY           SKY/WX    TMP DP  RH WIND       PRES   REMARKS
MEMPHIS        MOSUNNY   93  74  53 SW7       29.93F HX 103
NASHVILLE      CLOUDY    77  74  90 CALM      29.97R

......ARKANSAS.......

CITY           SKY/WX    TMP DP  RH WIND       PRES   REMARKS
FAYETTEVILLE   SUNNY     89  75  63 SE7       29.96F HX  99
FT SMITH       SUNNY     96  70  42 CALM      29.89F HX 102
LITTLE ROCK    MOSUNNY   94  73  50 S7        29.92F HX 103

......OKLAHOMA.......

CITY           SKY/WX    TMP DP  RH WIND       PRES   REMARKS
TULSA          SUNNY     94  71  47 S20G26    29.87F HX 101
PONCA CITY     SUNNY     95  72  47 S10G18    29.87S HX 103
MCALESTER      SUNNY     93  69  45 S9        29.93F HX  98
OKLAHOMA CITY  SUNNY     92  68  45 S10       29.91F HX  96

......IOWA............

CITY           SKY/WX    TMP DP  RH WIND       PRES   REMARKS
DES MOINES     TSTM      76  72  87 S18G25    29.88R FOG
QUAD CITIES    CLOUDY    85  78  80 S5        29.88F HX  96

......ILLINOIS........

CITY           SKY/WX    TMP DP  RH WIND       PRES   REMARKS
QUINCY         SUNNY     90  80  72 S6        29.89S HX 107
CHICAGO        CLOUDY    87  70  56 SW7       29.90R HX  92




USA.gov is the U.S. government's official web portal to all federal, state and local government web resources and services.